Location: Catenanuova
(37.5690°N, 14.6870°E)
Time: 20:38:45
(UTC+02:00)

BlueWalker 3 - Pass Details

Date: 19 May 2025
Orbit: 460 x 472 km, 53.2° (Epoch: 15 June)

Event Time Altitude Azimuth Distance (km) Brightness Sun altitude
Rises 21:29:11 0° 324° (NW) 2,491 7.1 -14.4°
Reaches altitude 10° 21:32:49 10° 2° (N) 1,617 5.0 -15.0°
Maximum altitude 21:33:54 11° 20° (NNE) 1,554 4.7 -15.1°
Drops below altitude 10° 21:34:59 10° 37° (NE) 1,618 4.6 -15.3°
Enters shadow 21:37:02 - 62° (ENE) 2,026 4.8 -15.6°
